Theta_e
283 283 282 282 281 281 281 280 280 281 280 280 281 280 280 280 279 279 279 278 277 277 277 277 277 277 276 276 276 276 275 275 274 273 273 272 272 272 272 272 272 272 272 272 272 272 272 271 271 271 271 271 271 271 272 271 271 272 272 272 272 271 271 269 268 268 270 272 272 272 272 273 271 273 272 272 273 273 275 274 274 273 273 273 274
283 282 282 282 281 281 281 281 280 280 280 280 280 280 279 279 279 278 278 278 277 277 278 277 277 277 277 276 276 275 275 275 274 273 273 273 272 272 272 272 271 271 271 271 271 271 271 271 271 270 271 270 270 271 271 270 271 270 271 271 270 271 271 270 269 269 268 271 271 272 271 273 270 273 271 272 272 273 273 273 274 274 273 273 273
283 283 282 282 281 281 281 280 280 280 280 280 280 280 279 279 279 278 278 277 277 277 277 278 277 277 276 275 276 275 275 274 274 273 273 273 272 271 271 271 271 270 270 270 270 270 270 270 270 270 270 270 270 270 271 270 271 270 270 271 270 270 271 271 269 268 268 268 270 270 270 271 271 271 272 273 273 273 273 273 273 274 275 274 274
283 282 282 282 281 280 280 280 280 280 280 280 280 279 279 279 278 278 278 277 277 277 278 277 276 276 275 275 275 275 274 274 273 273 273 272 271 271 270 270 270 270 270 270 270 270 269 269 269 269 269 269 269 269 270 270 270 270 270 270 270 270 271 271 271 269 268 267 269 269 271 271 271 273 273 274 273 273 273 273 274 274 274 275 275
283 283 282 281 280 280 280 280 279 279 280 280 279 279 279 278 278 278 277 277 277 277 277 276 276 276 275 275 275 274 274 273 273 272 272 271 271 271 270 270 270 270 270 270 271 270 269 269 269 269 268 268 268 269 270 270 270 270 270 270 270 271 270 270 270 270 269 267 268 271 272 272 273 273 274 273 273 273 273 273 273 274 274 275 275
284 283 282 281 280 280 280 279 280 280 280 279 279 280 279 279 278 277 278 278 278 277 277 276 276 276 275 275 274 274 273 273 273 272 271 271 271 271 271 271 270 270 270 270 270 269 269 269 269 269 268 268 268 268 269 269 269 269 269 270 270 270 269 270 270 269 269 269 269 270 272 271 272 273 274 274 272 271 272 273 273 274 273 272 273
284 283 283 282 281 280 280 280 280 280 280 280 280 280 279 279 278 278 278 278 278 277 277 276 276 275 275 274 274 274 273 273 272 272 271 271 271 271 271 270 270 270 269 269 269 269 269 269 269 269 268 268 268 268 268 268 269 268 270 269 270 269 268 269 269 269 270 270 270 271 271 272 273 272 273 273 273 273 271 271 270 271 272 271 270
283 284 283 282 281 281 280 280 280 281 281 281 280 280 279 279 278 278 278 278 278 277 276 276 276 275 274 274 274 273 273 272 272 272 272 272 271 270 270 270 270 270 269 269 269 269 269 269 269 269 269 269 269 269 269 268 269 269 269 269 268 268 268 267 269 269 269 270 270 270 271 271 272 272 272 272 271 271 272 270 268 268 269 270 270
283 284 283 282 282 281 281 281 281 280 280 281 280 280 279 279 279 279 278 278 278 277 277 276 275 274 274 273 273 273 272 272 272 272 272 272 271 271 271 271 270 270 269 269 268 268 268 268 268 268 270 272 273 273 272 272 271 269 269 269 268 268 268 269 270 270 270 270 270 272 271 271 270 269 269 270 270 269 270 270 269 269 269 269 270
284 283 283 283 282 281 280 280 280 280 280 280 280 279 279 279 279 279 278 278 277 277 276 275 275 274 273 273 273 273 272 272 274 276 275 272 272 272 272 271 270 269 269 269 268 268 268 268 269 272 273 274 274 275 275 275 276 273 271 270 269 270 270 269 269 270 270 270 271 271 269 268 268 269 269 270 271 270 269 269 268 269 269 268 269
283 283 283 282 282 281 280 280 280 280 281 280 279 278 278 279 279 279 278 277 276 276 275 275 275 274 273 272 272 273 272 272 276 279 279 278 273 272 271 271 270 269 269 269 268 268 268 268 267 270 271 273 272 274 275 275 276 276 276 276 275 272 270 271 271 273 272 271 271 270 268 267 268 270 270 270 270 269 269 269 269 268 267 266 265
282 282 283 283 283 282 281 280 280 281 280 280 279 278 278 278 278 278 277 277 276 275 275 275 275 274 273 273 272 273 273 275 278 280 280 280 277 272 272 271 270 270 269 269 268 268 268 267 268 267 267 267 267 267 271 274 275 275 276 276 277 277 278 275 273 272 272 270 269 268 267 267 269 270 270 269 268 269 270 269 268 267 267 266 266
283 283 283 283 282 282 281 281 281 280 280 279 277 276 277 277 277 277 277 276 274 274 275 274 274 273 273 273 272 273 272 277 279 281 281 281 280 275 272 272 271 270 270 269 268 268 267 267 267 267 267 271 270 268 268 267 271 274 275 276 276 277 277 277 277 276 274 270 266 266 268 269 269 270 270 269 271 269 269 268 268 268 268 266 265
283 283 283 283 282 281 281 281 281 280 278 277 276 276 276 277 277 276 275 274 273 273 273 273 274 272 272 272 272 272 272 276 280 281 282 282 282 277 272 272 272 271 270 269 268 268 268 267 266 266 267 267 268 267 267 267 267 267 268 270 271 273 276 277 276 276 275 270 267 268 271 272 270 270 271 272 270 268 268 267 268 267 266 265 266
283 283 282 282 282 282 281 281 280 279 277 276 276 276 276 275 275 274 274 274 273 273 273 272 272 271 271 272 271 271 271 276 280 281 282 283 283 279 273 272 272 271 271 270 269 268 267 267 266 266 266 266 267 268 266 267 266 267 269 270 272 272 273 273 274 272 271 271 271 272 272 272 272 272 272 272 271 271 270 269 268 266 265 265 265
282 283 282 282 282 282 281 280 280 278 277 276 275 276 275 275 275 274 273 273 272 271 271 271 271 271 271 271 271 271 271 277 279 281 282 283 284 279 274 273 272 271 271 270 269 268 267 267 266 266 266 266 269 273 273 271 270 270 271 272 272 273 274 275 275 276 274 273 274 273 273 273 275 273 273 273 272 271 271 268 266 263 263 263 262
282 283 283 282 282 282 281 280 279 278 276 275 275 275 275 274 274 272 272 273 273 272 272 272 271 271 270 270 270 271 271 275 279 281 282 283 283 276 273 273 272 270 270 270 269 268 267 267 267 266 266 266 270 274 275 275 273 273 273 272 272 272 272 272 274 275 276 276 276 276 276 275 275 275 275 275 273 272 268 263 261 263 263 262 262
283 283 283 282 282 281 281 280 279 277 276 276 276 276 276 274 273 272 273 272 273 272 272 271 270 270 270 270 270 270 270 273 278 280 282 283 282 273 272 271 271 270 268 269 268 267 267 269 269 267 266 266 272 274 276 275 273 273 272 272 271 269 270 271 270 271 274 274 274 273 272 272 272 272 272 272 273 272 264 261 263 264 263 263 261
282 282 283 282 282 281 280 280 279 277 277 277 276 276 275 275 274 272 272 272 273 271 270 271 270 269 270 270 272 271 270 272 277 279 282 282 281 273 272 271 270 269 268 267 268 267 267 268 270 270 268 269 274 275 276 275 274 273 273 272 270 269 269 270 268 267 267 266 265 264 264 266 264 263 264 270 271 270 267 265 265 264 262 262 262
283 283 282 281 281 280 279 279 279 278 278 277 276 276 276 274 273 273 272 272 272 270 270 270 270 269 269 269 270 271 270 269 272 279 281 282 282 274 272 270 270 269 268 268 265 265 266 265 268 273 275 276 276 277 277 278 275 273 272 270 269 269 270 267 268 268 267 266 263 260 260 261 261 262 263 263 264 265 267 267 266 265 263 263 262
282 281 280 279 278 278 278 279 279 279 278 278 277 275 274 275 273 272 271 270 270 269 269 269 269 269 267 268 268 269 269 268 269 277 280 281 282 278 272 272 271 269 268 266 265 264 264 266 266 270 274 276 277 278 278 278 277 273 271 269 269 270 271 266 268 269 264 261 259 257 258 258 258 259 261 262 263 264 265 267 266 266 264 262 262
280 279 278 278 278 278 278 278 279 279 278 276 275 274 273 274 273 272 270 270 270 269 268 268 268 267 264 265 265 266 267 270 266 273 278 281 282 282 273 272 272 269 267 266 265 264 265 266 266 269 274 276 277 277 278 277 277 273 271 274 274 275 267 265 262 260 256 255 254 255 256 255 254 257 258 259 262 263 264 265 266 266 265 265 263
278 278 278 278 278 278 278 278 278 278 276 276 275 274 272 271 271 270 270 269 269 269 268 267 266 266 265 265 264 264 264 265 271 268 273 278 281 281 280 275 276 271 268 266 266 265 266 267 268 271 274 276 277 277 277 278 277 274 274 276 276 274 267 261 260 255 255 254 254 255 255 255 256 256 258 259 261 263 264 265 265 265 265 265 265
278 278 278 278 277 277 277 276 276 276 276 275 274 274 271 271 270 269 269 269 268 268 268 266 265 266 266 266 264 263 262 262 267 271 270 275 278 280 281 280 278 273 270 268 268 267 266 267 269 273 275 276 277 277 277 277 276 275 276 276 273 269 261 258 256 255 256 255 254 255 256 255 255 256 258 260 261 262 264 264 263 264 263 263 264
277 277 277 276 276 275 275 275 275 274 274 274 274 273 270 268 269 265 267 268 268 268 268 266 266 266 266 266 266 263 262 262 262 267 272 273 275 278 280 281 280 279 273 270 270 269 270 273 274 275 276 277 277 277 277 276 276 274 274 274 270 260 257 256 254 253 253 255 255 256 256 257 258 259 260 262 262 263 260 260 260 260 260 261 261
276 276 274 274 274 273 273 270 270 271 271 272 274 273 271 269 270 267 266 267 267 267 267 265 265 265 265 266 266 265 262 261 262 262 267 270 272 275 277 278 279 279 278 273 273 274 275 276 276 277 277 276 275 273 269 270 273 273 273 270 259 257 255 253 253 253 255 255 255 257 257 257 258 259 261 261 260 258 257 258 258 259 259 259 259
274 272 272 271 269 271 272 270 268 266 266 267 267 268 268 268 268 267 266 266 266 266 266 265 265 265 265 266 264 262 261 261 260 260 261 262 264 268 271 273 276 278 277 276 275 274 275 275 275 276 276 277 275 273 271 271 267 265 261 259 255 255 255 254 255 256 258 258 257 256 256 257 259 259 258 257 257 258 257 258 257 258 258 258 258
273 271 269 269 268 269 270 267 268 267 266 268 268 265 265 267 268 268 267 267 266 266 266 265 266 266 266 265 262 261 262 261 261 260 261 262 263 264 266 268 267 269 273 275 274 274 274 275 276 273 272 271 270 265 264 262 261 261 258 256 255 255 259 262 262 260 259 259 257 255 256 257 257 257 258 256 257 257 257 257 257 257 257 258 257
269 267 266 267 266 265 267 267 267 267 264 262 264 264 267 266 268 266 263 263 267 268 266 266 266 264 264 264 264 263 263 263 264 267 265 267 264 263 264 266 267 269 272 275 271 271 271 270 270 268 268 267 266 265 264 261 259 257 256 255 253 253 252 253 254 256 255 253 254 256 257 258 257 258 258 258 258 258 257 258 258 255 256 256 257
267 266 266 266 264 264 264 263 262 264 264 264 263 260 265 269 266 264 262 268 272 273 272 267 265 264 264 265 265 266 266 266 271 272 273 273 273 273 271 271 271 270 272 276 274 270 269 268 269 268 268 266 266 265 264 262 261 259 255 260 258 255 255 255 254 255 254 255 255 257 258 258 257 257 257 258 258 258 260 262 258 256 254 254 256
268 265 265 265 265 264 263 262 261 261 261 261 260 262 259 261 271 273 271 270 272 273 275 275 274 272 267 264 266 273 273 274 274 274 275 275 275 275 275 274 274 274 274 272 272 271 269 268 268 268 268 267 266 265 265 264 262 261 261 257 255 257 259 256 256 254 255 256 256 257 257 257 256 257 257 258 257 258 257 257 256 254 253 254 255
270 267 265 264 264 263 262 262 261 260 259 259 260 260 261 261 262 269 273 273 273 274 274 275 276 276 275 272 265 262 270 274 275 275 275 275 276 276 276 276 276 276 276 276 270 269 270 269 268 268 267 267 266 266 265 264 263 262 261 258 258 256 256 256 257 255 255 255 257 257 256 256 256 257 257 257 258 257 256 256 255 255 255 254 255
268 265 263 263 262 262 261 261 261 261 259 259 258 259 260 260 262 263 265 273 274 274 274 275 275 276 276 276 276 271 270 271 274 275 275 276 276 276 277 277 277 277 277 274 271 268 268 268 268 268 268 267 267 266 265 264 263 262 260 259 259 259 258 258 259 256 255 256 255 256 256 257 256 256 257 256 256 255 255 256 256 255 255 255 256
267 265 264 263 262 261 261 261 260 260 260 260 260 260 261 262 262 262 259 259 264 271 275 275 275 275 276 276 276 276 275 274 274 274 275 276 276 276 277 275 277 278 277 272 272 270 269 268 268 268 268 268 267 266 265 263 262 261 260 259 259 258 257 255 255 255 254 255 256 256 256 256 255 254 254 252 254 254 255 255 255 255 255 256 256
261 262 263 263 262 262 261 262 260 259 259 259 260 260 260 259 260 260 260 262 262 263 264 269 274 276 274 275 276 276 276 275 275 275 275 276 276 276 277 274 273 273 274 274 272 271 270 269 269 268 268 267 266 264 264 263 261 259 259 258 258 256 255 255 254 255 254 253 253 254 254 255 253 254 254 254 253 254 254 254 254 255 255 256 256
263 262 261 261 261 261 260 260 260 260 260 261 260 261 259 260 261 260 260 260 260 260 261 264 267 272 275 276 276 276 276 277 276 276 276 276 276 276 272 271 271 271 271 272 271 270 269 269 268 267 266 265 264 262 262 261 260 260 259 258 257 255 253 254 254 254 253 253 254 255 255 253 254 253 252 254 254 254 254 254 254 256 256 256 257
262 261 261 261 260 260 260 260 260 260 263 260 260 260 260 259 259 258 259 259 259 258 260 259 262 263 268 266 270 274 275 274 274 274 275 276 276 273 270 270 270 270 270 270 270 270 268 267 266 265 264 264 262 262 261 260 260 258 258 257 254 254 254 253 253 253 253 253 253 254 253 254 253 251 252 254 255 254 254 254 255 256 257 257 258
262 262 260 260 258 259 259 258 260 263 261 260 258 259 259 258 258 259 259 258 259 259 258 258 265 264 265 265 266 263 265 270 271 271 271 270 268 265 265 265 265 265 265 266 266 266 266 265 264 263 263 263 263 262 260 259 258 257 256 254 254 254 257 256 257 256 254 254 254 254 254 254 253 251 253 254 255 255 254 255 254 254 255 257 256
258 262 262 262 262 259 258 258 260 260 259 258 258 259 259 258 257 257 257 257 257 257 257 256 257 260 261 259 258 259 263 261 261 262 262 262 263 263 262 262 262 262 263 264 263 263 263 263 263 262 262 261 261 260 259 259 257 255 254 253 253 252 253 253 254 254 253 254 255 254 253 254 252 251 252 253 254 254 254 254 254 254 254 255 254
260 259 263 264 262 262 259 259 259 259 258 258 257 257 257 258 258 257 256 255 256 256 255 256 257 256 256 255 256 255 257 257 256 256 257 259 260 261 260 260 260 260 260 261 260 260 260 260 261 261 261 260 259 258 257 256 254 253 251 252 252 252 252 252 252 253 253 254 253 253 253 253 253 252 252 253 254 254 253 253 254 255 255 255 255
258 259 261 264 262 261 258 258 257 257 257 257 257 257 257 257 257 257 255 255 255 255 255 254 254 255 257 261 266 263 254 253 254 253 254 255 256 256 257 257 256 256 255 254 254 254 253 254 253 254 254 254 253 253 252 252 251 250 250 251 250 252 252 251 252 252 253 253 253 253 253 253 253 252 253 253 255 255 254 255 255 255 255 255 255
258 259 259 259 260 258 257 257 256 258 257 257 256 255 256 256 255 255 255 255 256 255 254 254 253 253 260 265 266 268 261 257 257 256 255 254 253 253 254 255 254 252 251 251 251 252 251 250 251 250 251 251 251 251 250 249 250 250 250 250 251 251 251 251 252 253 253 253 253 253 253 253 253 254 254 256 254 254 253 253 253 253 253 253 254
257 257 257 257 257 256 256 255 254 254 254 254 254 257 256 254 254 255 255 255 254 254 253 253 252 251 253 263 262 263 257 257 259 258 257 256 254 254 253 252 251 250 250 250 250 250 250 250 251 251 251 252 252 252 252 251 250 250 249 250 250 250 251 251 252 253 253 253 253 253 253 253 254 255 255 255 255 253 252 252 253 253 253 253 253
256 255 256 255 254 254 254 254 254 254 253 255 255 255 254 253 253 252 252 251 251 252 251 250 250 251 250 252 254 251 247 248 249 248 250 251 251 251 251 250 249 248 247 247 248 248 248 248 250 251 249 250 250 248 250 250 251 250 250 250 251 251 251 251 252 253 254 253 253 253 253 253 254 254 254 254 253 252 252 251 252 252 253 252 253
254 255 254 253 252 253 252 253 253 253 254 254 252 251 253 251 250 250 250 249 251 251 250 250 250 250 251 249 248 248 248 247 249 249 248 248 248 249 248 248 248 249 250 250 249 248 247 248 248 248 249 250 249 249 250 250 250 251 251 251 251 252 252 252 253 253 254 253 253 253 253 253 253 253 253 253 253 252 252 252 252 253 253 253 253
253 253 253 253 252 252 251 250 253 251 251 250 250 248 248 247 248 249 250 249 250 249 249 249 249 249 249 247 247 249 247 245 245 247 248 248 247 249 248 247 247 247 248 248 248 247 248 248 248 248 249 249 249 248 249 249 250 251 250 251 252 252 253 252 252 252 253 253 252 252 253 253 253 253 254 253 253 253 252 252 251 252 252 253 253
251 253 253 252 252 252 252 251 250 249 248 249 249 248 247 246 247 249 250 249 249 250 248 247 247 247 247 246 247 246 247 248 247 247 247 247 246 247 246 246 247 247 248 248 246 247 247 248 248 248 249 249 249 249 249 249 248 250 250 251 251 251 251 252 252 252 252 252 252 252 252 252 253 253 254 254 254 253 253 252 252 252 252 253 253
251 252 251 252 251 251 250 250 251 252 249 249 248 248 248 248 248 248 247 248 248 248 247 246 245 245 247 247 247 247 247 247 247 248 248 248 246 246 246 244 246 247 247 248 246 246 246 246 247 248 248 249 249 249 249 248 248 249 249 250 250 251 252 253 251 251 251 251 252 252 252 252 252 253 253 253 253 252 252 252 252 252 252 253 254
251 252 251 251 250 250 251 250 250 249 249 248 249 248 248 247 247 246 247 247 247 247 245 246 245 245 245 246 247 246 247 248 247 246 247 247 246 245 246 245 247 247 247 248 249 247 247 247 248 248 248 248 249 249 249 249 249 249 249 250 251 253 254 254 253 251 252 252 251 251 251 251 251 252 253 253 253 252 252 252 251 252 253 253 254
250 251 251 250 250 249 249 249 248 247 247 247 247 247 247 247 246 246 246 246 245 246 244 245 246 246 246 246 247 247 247 247 247 248 247 246 247 246 246 247 246 246 247 247 248 249 247 245 246 247 248 248 248 248 248 248 249 249 249 250 253 254 254 254 254 254 253 251 251 251 251 251 251 252 252 252 252 252 251 252 252 253 253 252 253
250 250 249 249 248 248 248 247 246 245 246 246 246 246 247 246 247 246 246 246 247 246 246 245 245 245 245 246 247 246 247 247 248 248 247 247 247 246 247 246 247 247 247 248 248 248 247 246 247 248 248 249 248 248 248 248 248 249 251 253 254 254 254 254 254 254 255 254 252 252 252 251 251 251 251 252 251 251 252 252 252 252 252 253 254
Wind_Speed
10 9 9 8 9 10 9 8 8 7 7 7 8 8 7 7 7 6 6 6 6 6 6 6 6 6 7 7 8 8 9 7 6 7 6 6 4 5 5 6 8 6 6 5 4 5 5 5 3 2 2 2 2 2 2 1 2 3 3 3 1 1 1 1 4 10 6 2 5 6 6 7 7 6 9 8 8 7 7 7 8 8 9 8 9
9 9 8 9 10 10 9 7 8 7 7 7 7 7 7 7 7 7 7 6 6 6 6 6 5 6 6 6 6 7 6 8 7 7 7 7 5 3 5 6 7 5 5 5 4 4 5 5 3 2 2 2 2 1 2 2 2 1 1 2 2 2 2 3 4 5 11 6 6 5 5 7 9 6 8 11 11 9 10 8 6 6 7 8 8
10 10 10 10 10 9 8 8 7 8 8 7 8 8 7 7 6 8 7 6 5 5 6 6 5 5 5 5 7 6 8 7 6 7 7 7 7 4 4 5 6 6 5 5 5 4 4 4 3 3 2 3 2 1 1 0 0 1 1 1 1 2 3 3 2 4 7 9 7 9 8 7 8 10 10 8 8 8 9 9 8 6 5 7 8
8 9 9 9 9 8 8 7 8 8 9 8 8 7 7 7 6 7 6 6 6 5 5 6 5 5 6 6 5 4 6 7 6 5 6 6 6 7 5 4 4 4 6 6 5 5 5 5 4 3 3 3 2 1 1 1 1 0 1 2 1 3 3 2 2 3 5 9 7 7 8 9 9 8 8 8 8 8 8 8 7 7 8 7 7
9 9 9 10 9 9 9 9 9 9 9 8 8 8 8 7 6 7 7 6 6 6 6 5 6 6 6 7 5 7 8 7 8 7 5 4 5 6 6 5 5 4 5 5 6 6 5 5 5 4 3 3 2 2 2 2 1 1 1 2 1 2 2 2 2 3 4 7 9 6 8 8 8 8 9 10 10 9 6 7 8 8 9 8 7
10 10 9 10 10 11 10 9 11 11 10 9 9 9 8 8 7 6 6 8 7 6 7 6 6 6 6 6 5 6 6 7 8 7 7 5 4 5 6 5 5 4 4 4 5 5 5 5 4 4 4 4 4 3 2 2 1 2 2 2 2 1 1 2 2 3 5 6 7 10 9 11 12 10 9 10 12 13 11 8 5 6 10 13 9
10 10 11 12 11 12 11 12 11 11 10 9 8 8 9 8 8 8 7 8 8 7 7 7 5 5 6 5 6 7 7 7 7 6 5 5 6 6 5 5 4 3 3 3 4 4 4 4 4 4 4 4 4 3 3 2 3 3 2 2 2 1 2 3 3 4 5 7 7 7 10 10 10 11 10 9 9 9 12 14 15 11 6 7 13
11 12 12 12 12 12 11 10 10 10 9 9 9 9 8 8 8 7 7 8 8 8 8 8 6 5 5 5 6 6 8 6 5 5 5 5 6 5 6 6 6 4 3 3 3 3 3 3 3 3 4 3 4 3 4 4 2 3 2 2 2 2 4 4 4 4 4 5 6 8 8 9 9 8 8 9 10 8 8 10 13 13 13 10 8
12 12 12 12 12 10 9 8 7 8 9 10 10 9 9 8 8 8 7 7 6 7 7 7 7 6 5 6 6 5 5 4 4 5 6 6 6 7 6 7 7 6 5 3 3 3 2 3 3 3 3 5 8 7 6 7 4 2 3 3 4 4 4 4 4 4 5 5 6 6 8 9 9 11 11 9 10 11 12 10 11 11 12 13 9
13 13 13 13 9 9 9 8 8 8 10 11 10 9 9 9 9 9 9 8 7 7 7 7 7 7 8 7 5 4 4 4 8 12 10 6 6 6 5 6 6 6 6 4 3 3 3 2 3 7 7 7 8 8 9 9 8 6 6 4 4 5 5 5 5 5 4 4 5 8 8 8 9 10 10 10 10 11 11 11 12 13 13 13 10
13 13 13 10 9 9 9 9 9 11 10 9 9 10 10 9 9 9 8 8 9 8 8 8 8 7 9 9 8 6 7 7 12 14 14 14 8 7 6 6 5 6 5 6 5 4 3 4 3 4 4 6 4 7 8 8 8 9 9 10 9 7 6 5 4 3 3 5 4 4 6 8 9 9 9 10 10 10 10 11 11 12 11 13 15
12 12 11 10 10 11 10 10 10 11 10 10 9 9 8 9 9 9 9 9 8 8 8 9 8 7 7 7 8 7 6 10 15 15 15 16 12 7 6 5 5 5 6 6 5 4 5 4 3 3 3 3 3 2 4 6 8 9 9 9 9 10 10 6 5 4 4 3 5 5 5 7 9 9 9 10 11 11 10 10 10 11 12 12 11
11 11 10 11 11 10 10 11 11 10 10 9 8 8 9 9 9 10 11 8 7 8 9 9 9 7 8 9 8 7 7 12 16 17 16 16 16 11 5 6 6 5 5 6 5 5 5 5 4 4 4 8 5 3 3 3 7 9 10 9 9 9 9 10 11 7 3 3 4 6 5 7 9 8 9 11 11 12 11 10 10 10 9 10 11
11 11 11 11 10 10 10 10 10 9 8 8 8 8 9 11 9 7 6 6 9 8 7 10 8 8 8 8 8 7 7 11 17 17 17 17 17 11 5 7 6 6 6 6 5 6 5 5 5 5 4 4 3 4 3 4 5 4 4 4 4 7 9 10 10 10 8 4 4 5 7 8 9 10 11 11 11 10 9 10 11 8 7 9 11
10 10 10 10 9 9 11 10 10 9 8 8 8 9 10 7 7 8 9 10 10 11 11 9 8 6 7 8 7 7 7 13 16 18 18 18 17 13 6 6 6 5 5 6 6 5 5 5 5 6 5 4 5 5 5 5 4 4 5 6 5 6 5 5 4 2 4 4 5 6 7 8 9 11 11 10 10 10 9 11 8 8 8 9 9
12 10 11 11 11 11 11 10 10 9 9 9 10 10 9 10 10 8 7 6 5 5 5 5 8 9 8 7 7 9 7 14 17 17 18 17 19 8 7 7 6 6 6 7 5 5 5 6 5 6 6 5 7 11 9 6 6 8 8 8 6 6 6 5 7 8 7 6 6 6 7 8 12 12 11 10 9 8 6 4 5 6 8 9 9
12 12 11 11 11 10 11 11 11 10 10 10 10 11 11 10 8 7 8 8 8 8 9 9 8 8 8 8 9 9 7 12 17 17 17 18 14 5 6 5 6 6 6 6 5 5 5 6 6 6 6 6 8 11 11 11 6 8 8 5 4 4 4 3 6 9 11 12 12 12 13 15 16 17 16 16 11 10 5 6 6 6 7 10 9
11 10 11 11 11 11 11 12 12 11 10 13 13 11 9 6 7 7 10 10 10 11 8 7 6 7 9 10 10 9 7 9 16 17 18 18 13 6 6 6 5 5 5 5 5 5 5 11 9 7 7 7 10 12 12 10 7 7 5 6 6 5 4 3 3 2 7 7 7 8 11 12 13 13 13 13 13 10 4 6 7 6 7 7 10
11 12 12 10 10 10 10 10 11 11 12 12 11 11 11 11 9 8 8 6 8 5 6 7 7 6 7 8 7 9 8 9 15 17 18 18 12 6 7 6 6 6 5 5 4 5 5 7 13 11 9 9 14 13 14 11 8 7 6 7 6 6 5 3 3 2 2 3 4 5 6 7 6 4 6 12 12 9 5 5 5 6 7 8 8
12 9 8 9 9 9 9 10 10 11 12 10 9 10 8 6 8 9 8 8 7 6 6 7 8 7 6 6 7 8 8 7 9 17 17 18 17 7 7 8 9 8 6 6 5 4 5 6 8 15 17 16 15 15 14 16 9 6 5 5 6 7 4 4 3 3 2 3 5 4 5 5 5 5 5 5 6 5 6 5 5 5 6 8 8
8 8 7 8 8 9 8 10 12 11 11 11 9 7 7 8 7 8 8 7 6 6 7 7 7 7 6 6 6 7 7 7 7 15 18 18 20 13 8 9 8 6 6 6 6 6 6 6 6 11 16 16 15 15 15 15 14 6 6 6 5 5 5 4 3 3 2 2 3 4 4 4 4 4 4 5 5 5 5 6 6 5 6 6 8
8 7 8 9 9 9 10 9 10 10 8 7 8 8 6 7 8 8 7 7 8 8 7 6 7 7 5 5 6 7 5 7 5 12 17 19 20 20 9 9 8 7 6 7 6 7 7 6 5 9 15 15 15 15 16 14 15 4 7 9 9 7 6 3 3 1 2 1 2 4 5 5 4 4 4 4 4 5 5 6 5 5 5 6 7
8 8 8 8 9 10 9 10 10 7 8 8 9 8 7 7 7 7 8 7 8 9 8 7 6 7 6 6 5 5 5 5 10 8 14 18 20 22 18 10 15 9 9 9 9 8 5 6 6 12 15 16 15 16 15 16 14 5 12 10 11 4 9 4 4 2 1 1 2 5 5 5 5 5 4 4 4 5 5 5 5 5 6 6 7
8 8 8 8 8 8 9 9 8 7 8 8 8 8 8 7 7 7 8 8 8 8 7 6 6 7 9 8 6 6 4 5 8 11 10 16 18 21 22 19 17 11 9 9 7 6 6 6 8 14 16 16 17 16 16 15 10 11 11 8 2 7 3 2 1 0 2 3 4 6 6 4 4 4 4 3 4 5 5 5 5 6 6 6 8
8 8 8 8 8 6 6 7 7 7 7 8 8 7 6 6 7 5 7 7 7 8 7 6 8 8 7 9 7 5 6 5 5 8 14 15 17 18 22 23 21 19 12 8 8 7 9 15 17 17 17 17 17 18 14 11 8 6 5 5 5 4 2 1 1 1 3 6 6 6 6 5 5 5 4 5 6 5 4 5 4 5 5 6 7
8 8 7 6 6 6 7 5 5 5 6 6 7 7 9 8 8 7 7 7 7 8 7 7 7 7 8 9 8 6 5 6 7 7 8 10 12 18 20 21 22 22 17 9 14 17 19 19 19 18 17 15 11 6 5 6 8 8 4 3 6 3 2 3 2 3 6 6 5 6 6 4 4 4 5 5 4 5 4 4 5 6 5 6 8
7 6 7 6 5 6 7 6 5 4 4 4 4 6 6 7 7 7 7 8 7 7 7 8 8 8 9 9 6 5 5 5 5 5 6 6 7 8 10 12 17 18 14 7 11 13 15 15 11 14 12 17 14 10 9 7 4 2 4 3 2 2 3 4 5 5 5 5 6 6 5 4 4 4 4 4 5 5 3 5 4 6 5 5 6
8 7 7 6 6 6 6 7 8 6 6 6 7 5 5 7 8 9 10 10 9 9 8 8 9 9 9 7 6 5 6 6 6 8 8 9 8 8 8 7 6 3 7 10 6 5 6 9 14 5 4 4 4 3 3 3 4 4 1 1 2 3 4 5 5 5 5 4 5 4 4 4 4 4 4 4 5 4 3 4 4 5 4 5 5
6 5 5 6 6 4 6 6 6 6 5 4 2 3 7 7 8 5 3 5 7 9 8 8 7 7 7 7 7 7 7 8 10 10 10 11 11 9 10 10 8 10 10 10 6 4 4 5 5 4 4 5 5 6 5 4 2 3 3 2 3 3 3 2 6 7 6 4 6 5 5 4 5 4 4 4 4 3 3 5 4 3 5 3 5
6 6 6 6 5 5 5 5 4 6 6 6 5 0 1 5 6 6 5 5 10 11 8 8 7 6 7 7 8 10 10 7 7 14 18 19 20 20 16 15 14 11 12 19 11 7 7 6 7 7 7 6 6 6 6 5 5 5 5 5 4 4 5 5 6 6 4 5 5 4 5 4 5 4 4 4 4 3 5 6 4 2 3 4 6
6 6 6 6 6 6 6 6 5 5 5 6 4 6 2 1 5 9 8 8 9 11 13 13 12 12 10 7 8 14 15 12 11 12 15 17 18 18 19 18 18 18 18 11 10 9 8 9 9 8 8 7 8 7 6 6 7 6 6 6 5 5 6 5 6 6 6 5 5 5 4 4 5 5 5 4 4 5 4 3 3 3 3 5 6
7 6 6 6 6 6 5 6 6 6 4 4 6 6 5 6 5 5 10 11 12 13 12 13 14 14 15 12 7 5 11 14 15 14 14 15 16 17 17 18 18 18 18 18 10 8 7 8 8 8 8 8 8 5 6 7 7 7 6 5 6 5 6 7 5 5 6 5 5 6 5 5 5 5 4 4 5 4 4 5 4 5 5 5 5
7 6 6 6 6 6 6 6 5 6 6 5 4 4 6 6 6 6 4 8 12 12 12 13 14 15 15 16 15 12 10 11 14 15 15 15 15 16 17 18 18 18 19 13 10 9 8 8 8 7 7 8 7 7 7 7 7 7 6 7 6 6 6 5 3 5 5 6 5 5 5 6 6 6 5 5 4 5 4 5 5 5 4 5 6
6 7 7 7 7 5 5 5 6 5 5 5 5 6 5 6 6 4 4 2 3 8 11 14 14 14 15 15 15 15 13 12 12 12 13 14 14 13 13 11 15 18 16 9 8 8 7 8 8 8 7 7 7 6 7 6 6 6 5 5 6 4 3 2 3 5 5 6 6 6 5 6 6 6 6 4 4 4 5 5 5 5 5 5 6
5 6 9 8 6 6 5 5 5 5 5 5 5 5 6 5 5 5 6 6 7 7 4 6 11 14 10 10 12 14 14 13 12 12 12 13 13 13 13 8 8 8 9 8 8 9 8 8 8 8 7 7 6 6 7 6 6 6 6 5 5 4 3 4 5 5 6 6 6 6 6 6 6 7 5 5 4 5 5 5 5 5 5 6 6
5 5 5 5 5 5 5 5 5 6 6 6 5 5 5 6 6 6 5 4 5 4 4 5 4 7 13 13 12 12 13 13 13 14 13 12 12 13 8 6 6 7 7 7 5 5 5 6 5 5 5 5 4 4 4 5 5 5 5 5 5 5 5 5 6 6 6 6 6 6 5 6 6 6 5 5 5 6 5 5 5 5 6 6 5
5 5 5 4 5 5 4 4 5 5 5 6 5 5 5 5 5 4 5 5 4 2 4 3 1 2 2 2 1 5 4 3 4 5 0 5 6 2 1 2 3 3 4 6 6 6 6 5 4 4 4 5 5 5 5 5 5 5 4 5 4 4 5 6 6 6 5 6 6 6 5 6 6 5 5 6 5 5 5 5 5 6 7 8 8
6 6 6 5 5 5 5 5 6 6 5 5 4 5 4 5 4 4 5 4 3 4 2 2 3 4 4 1 5 2 2 3 3 3 4 4 4 3 2 3 2 1 2 3 3 3 3 2 2 3 3 4 4 4 4 4 4 5 5 4 5 6 6 5 7 6 6 6 6 6 6 6 6 6 5 5 6 6 5 6 5 6 5 8 6
4 5 8 9 6 6 6 6 6 5 5 4 4 5 6 4 3 3 3 3 3 3 4 3 3 4 2 1 0 3 2 1 1 3 2 2 2 2 1 1 1 1 1 2 3 2 2 2 1 1 1 2 3 3 4 4 5 5 5 4 5 5 5 5 6 6 6 6 6 6 6 6 6 6 5 5 6 6 6 6 5 5 6 7 6
6 4 6 7 5 5 6 6 5 5 6 5 4 3 3 4 4 4 3 3 4 3 3 4 3 2 0 1 1 1 1 1 2 2 1 3 2 1 1 1 2 2 3 3 3 3 3 3 2 2 2 2 3 4 5 4 5 4 3 4 5 5 6 6 6 6 7 6 6 6 6 6 6 5 5 6 6 6 6 6 6 5 6 6 6
5 5 5 5 5 5 5 5 5 4 4 4 3 5 4 4 3 4 3 3 3 2 2 3 2 1 1 2 5 5 4 4 3 1 2 1 1 1 1 1 2 1 1 2 3 3 3 3 3 3 3 3 3 3 3 3 3 3 4 5 3 5 5 5 5 6 6 6 6 6 6 6 5 5 6 7 6 6 6 6 6 6 6 5 6
5 5 5 4 5 5 5 5 5 4 3 4 3 3 4 4 2 3 4 2 4 3 2 1 1 0 2 3 3 4 4 2 3 3 1 1 1 2 2 2 2 2 2 3 3 3 2 2 3 3 4 3 3 3 2 3 4 4 4 4 5 5 5 6 6 6 6 6 6 6 6 6 5 5 7 6 6 6 6 6 6 5 5 6 6
4 4 5 5 5 4 4 3 4 4 3 3 2 2 3 3 2 4 2 3 1 2 2 2 0 0 1 3 1 4 5 2 2 1 1 0 1 1 2 2 1 1 2 2 2 2 2 3 4 4 4 4 4 4 5 5 5 6 5 5 5 6 6 6 6 6 6 6 6 6 6 6 6 6 6 6 6 5 5 5 5 6 6 6 6
5 5 6 4 5 4 5 4 4 3 3 3 2 4 4 3 2 2 2 1 1 1 1 1 1 0 0 3 4 4 1 1 0 0 1 2 2 2 3 2 2 2 2 2 3 1 2 3 4 4 4 4 4 3 5 5 5 5 5 5 5 6 6 6 7 7 6 5 6 6 6 5 5 6 6 6 6 6 6 5 6 6 5 5 6
6 6 6 6 4 5 3 3 4 4 5 5 3 2 4 2 3 2 2 2 2 1 0 0 0 0 0 0 0 0 1 0 1 1 1 2 3 5 4 3 3 4 4 4 3 2 2 3 3 4 4 5 4 5 5 5 4 5 5 6 6 7 7 7 7 5 5 5 6 5 5 5 6 6 6 6 5 5 6 6 5 6 6 6 6
6 6 6 6 5 6 5 4 5 4 4 4 5 3 2 2 3 2 3 2 2 1 0 0 0 1 1 1 1 2 1 1 2 2 4 2 3 5 4 4 4 3 3 4 3 2 4 4 4 4 5 5 5 5 5 5 5 5 5 6 7 8 7 6 5 5 5 5 5 5 5 5 6 6 7 6 5 6 6 6 5 6 6 6 7
5 6 5 5 6 6 6 6 5 4 4 3 3 3 2 2 2 2 3 3 1 3 1 1 1 2 2 2 2 2 3 2 3 2 3 3 3 4 4 3 5 4 5 5 3 4 3 4 4 5 5 5 5 5 5 5 5 5 5 5 6 6 6 5 5 5 5 5 5 5 6 6 6 6 7 7 6 6 6 6 6 6 6 6 6
6 6 5 5 5 6 4 5 5 5 5 4 3 4 4 3 2 3 2 2 1 1 1 1 2 2 3 3 2 2 2 3 3 4 3 4 3 4 4 3 4 5 4 5 4 3 4 4 4 5 5 5 5 5 5 5 5 5 5 5 6 6 7 6 6 6 5 5 5 6 6 6 6 7 6 6 7 6 6 6 5 5 6 6 7
6 6 6 5 4 6 6 6 6 6 5 4 3 3 4 2 2 1 1 1 1 1 2 3 4 2 3 3 3 3 3 4 3 3 3 5 3 3 4 3 4 5 5 5 5 4 4 5 5 5 5 5 5 5 5 5 6 5 5 6 6 9 11 11 7 6 7 6 5 6 6 6 7 7 6 6 7 6 6 6 5 6 6 6 6
5 5 5 4 5 4 4 4 4 4 5 4 5 3 2 3 2 2 2 1 1 2 2 2 3 4 4 3 5 4 3 3 4 4 4 3 4 4 4 5 5 5 5 5 5 5 4 3 4 4 5 5 5 5 5 5 5 6 5 6 9 12 11 12 13 11 8 5 6 6 6 7 7 7 7 7 7 7 7 7 6 7 6 7 7
6 4 4 4 4 3 4 5 4 3 4 4 5 4 4 3 4 2 2 2 4 4 3 3 4 3 4 5 5 4 4 4 4 4 5 5 4 4 5 5 5 4 5 5 5 5 5 4 5 5 4 5 5 5 5 6 5 6 8 12 13 13 14 13 8 9 12 9 5 6 7 7 7 7 7 6 6 7 8 8 7 7 7 7 7
Wind_Direction
162 165 159 161 160 164 162 160 163 158 155 157 155 157 154 150 154 148 133 150 149 151 154 155 152 150 146 148 148 146 138 135 136 133 127 124 119 124 125 118 114 114 111 98 96 104 109 110 103 96 100 100 100 91 70 64 64 43 56 67 39 328 143 247 255 285 294 104 338 323 330 330 328 326 320 317 315 312 308 300 298 297 300 298 304
169 160 164 162 169 167 165 163 158 156 156 156 156 158 156 154 151 142 153 153 153 154 154 148 150 154 151 149 149 138 132 124 138 134 130 129 128 133 128 121 117 121 116 118 113 116 121 117 117 116 120 125 114 121 113 60 80 54 5 117 278 253 280 171 269 268 296 323 319 324 325 333 320 323 322 321 320 317 316 312 296 286 292 299 304
169 164 164 167 171 166 160 162 157 160 159 163 165 161 156 152 152 153 155 154 151 152 152 147 149 145 147 150 146 141 141 135 142 131 135 140 141 140 135 134 136 137 132 135 132 128 123 131 141 138 138 137 140 131 115 93 107 153 276 265 205 272 259 253 251 284 300 309 332 326 330 326 321 320 319 311 306 309 311 313 313 306 293 294 301
165 163 164 168 165 160 165 158 159 165 169 173 168 160 157 157 153 152 152 148 152 150 144 145 141 150 159 166 171 150 144 140 130 128 139 147 147 145 138 127 128 137 141 145 145 145 150 147 163 158 155 141 139 151 187 178 179 201 250 284 218 242 257 231 276 285 306 309 329 326 317 319 319 314 311 308 314 317 312 309 308 313 310 308 311
166 169 166 163 166 169 169 165 168 173 175 171 168 162 162 156 154 156 149 155 155 148 146 144 151 163 178 182 165 151 146 142 123 117 123 143 148 140 139 134 133 141 146 152 154 154 162 165 163 157 146 150 177 177 199 182 194 165 216 266 242 260 280 286 287 284 290 299 306 304 316 310 315 318 320 325 325 320 314 312 321 318 319 319 325
170 168 170 167 171 178 175 171 179 179 175 172 170 167 161 158 158 155 158 159 157 162 157 158 165 175 177 181 171 145 139 114 116 124 125 134 135 130 125 130 132 137 150 155 153 162 163 164 162 158 156 159 187 188 171 165 205 204 222 255 232 263 276 282 275 277 276 275 289 305 327 329 325 326 333 335 329 324 324 321 316 328 330 325 330
171 172 175 178 178 184 181 184 180 178 176 173 165 164 165 162 161 164 165 167 165 164 162 160 170 171 176 173 172 156 132 121 120 132 139 143 139 138 133 129 130 134 154 161 153 156 160 160 165 165 170 176 182 180 157 192 183 219 216 201 257 231 269 261 267 271 274 291 294 299 317 323 323 322 333 331 316 317 327 331 327 329 330 332 325
173 178 181 186 187 187 187 182 179 177 171 166 169 167 163 164 166 161 164 170 171 169 170 172 164 161 173 173 171 157 132 132 131 135 149 144 147 142 147 145 146 149 160 163 154 151 162 172 172 179 177 188 179 195 166 197 208 183 232 156 246 240 249 259 274 268 273 284 294 304 308 320 325 324 319 318 322 324 339 330 318 322 326 332 327
179 181 184 190 193 185 178 175 172 169 168 170 169 169 168 165 164 166 172 172 170 171 165 160 158 163 173 175 159 151 144 151 136 153 149 155 155 154 152 150 156 162 165 162 155 156 162 178 188 189 189 203 203 199 201 194 191 207 241 173 232 238 246 255 263 274 279 283 287 299 316 326 327 324 321 325 330 328 327 325 313 318 319 317 320
178 183 190 194 183 174 173 170 170 169 174 177 175 168 166 167 170 172 176 176 170 166 163 160 168 174 159 168 159 154 157 139 176 177 174 159 155 151 150 157 161 165 166 162 167 175 180 178 195 199 213 220 218 215 213 217 219 201 200 224 224 233 241 248 258 267 264 277 302 321 322 319 320 313 309 313 323 322 320 324 322 323 321 312 300
183 184 191 182 173 170 170 173 171 182 183 174 170 169 170 170 173 175 175 175 174 168 164 171 178 179 174 162 164 181 180 172 183 187 185 180 164 162 161 159 160 167 172 171 179 179 186 181 205 242 242 229 224 219 222 225 231 242 242 237 228 224 219 244 251 253 297 302 319 337 319 310 305 305 307 317 320 321 319 319 320 322 323 327 321
184 188 184 178 177 176 176 173 178 184 178 180 174 172 166 169 176 177 176 176 176 165 175 182 180 180 182 185 187 192 183 189 190 195 194 190 179 167 163 156 161 169 167 177 178 176 183 188 206 205 225 227 227 255 252 246 243 249 254 256 261 273 280 283 287 295 293 311 322 314 308 296 300 307 314 321 317 316 315 316 317 319 317 317 312
183 184 183 179 181 176 174 177 182 181 184 175 170 166 170 176 180 180 187 179 156 175 186 179 189 182 184 189 194 193 193 193 198 200 201 197 189 177 161 160 162 170 177 181 180 183 181 199 218 224 224 234 227 208 208 256 273 268 264 270 287 286 284 286 288 288 299 338 313 296 284 294 302 308 314 313 312 308 313 313 316 312 310 307 303
183 186 182 183 178 174 175 179 183 182 172 169 166 172 178 191 188 177 162 159 176 184 186 189 188 188 188 193 194 197 198 199 201 205 205 202 196 180 161 168 175 171 175 182 182 186 188 194 210 227 224 224 228 222 222 232 246 266 279 272 257 276 281 292 290 287 294 298 267 272 289 298 300 305 307 308 309 308 314 313 313 314 316 304 304
186 185 185 180 171 173 177 179 180 173 172 169 173 184 190 184 177 180 178 183 184 190 190 190 193 186 191 194 195 199 205 202 207 209 209 207 202 185 178 174 171 177 179 177 183 187 194 198 208 219 221 217 216 213 210 224 227 243 253 254 255 251 252 251 242 250 266 260 261 274 290 297 296 299 303 304 301 305 308 307 327 322 304 296 284
188 186 184 180 180 179 176 176 177 172 172 175 180 188 187 188 189 181 176 183 190 178 195 189 190 196 196 188 192 210 209 206 210 212 212 211 211 187 183 183 179 178 188 190 184 189 190 204 210 221 224 221 237 237 228 215 217 233 245 249 241 238 231 207 222 268 286 269 261 271 278 287 298 302 302 303 309 306 301 328 332 318 310 303 306
191 189 184 181 183 178 177 177 179 177 176 175 187 191 190 191 189 167 178 188 190 195 198 198 196 190 190 192 200 213 207 209 211 213 213 211 213 163 179 180 184 180 189 188 190 193 198 204 213 215 227 227 238 244 244 240 233 244 247 239 232 206 207 233 277 301 297 285 281 289 297 301 304 304 305 308 307 309 341 337 315 306 308 312 311
188 183 188 186 182 178 180 179 179 177 175 188 194 196 191 184 183 175 187 190 198 202 197 193 196 195 195 201 202 206 211 205 210 214 213 211 207 170 177 180 187 187 184 193 192 202 210 217 215 215 221 231 237 242 244 244 247 250 251 258 238 215 231 239 231 264 288 299 311 311 310 308 310 313 313 309 308 314 346 309 296 306 302 308 307
186 190 192 182 177 179 179 178 180 181 188 196 191 189 190 193 186 175 192 189 205 183 183 196 205 205 205 205 195 204 214 206 210 214 213 211 206 157 177 180 193 199 188 209 209 207 225 229 227 224 218 226 238 238 242 241 240 242 241 245 235 226 225 223 223 231 251 308 300 332 316 314 313 305 298 308 312 319 314 284 291 298 301 303 306
192 186 172 172 174 172 175 180 183 184 192 193 189 196 186 166 172 181 194 193 191 187 191 199 207 214 201 200 207 210 210 210 209 214 214 212 206 168 183 179 205 205 202 212 215 231 222 228 237 235 233 232 233 238 242 246 240 241 224 214 220 240 202 193 189 171 229 241 280 291 283 293 302 308 304 300 303 294 288 282 280 287 289 298 300
165 167 162 161 167 174 176 181 186 193 191 191 187 181 175 183 174 179 188 187 185 192 196 203 209 215 194 204 206 219 210 209 214 215 218 214 213 186 186 197 205 193 203 211 216 221 228 224 223 235 237 241 243 246 250 248 252 231 196 194 195 234 180 156 194 190 153 245 269 282 283 297 293 294 290 288 285 281 277 284 275 271 286 293 298
153 153 162 169 173 176 182 189 189 190 184 166 170 184 186 175 179 181 177 181 193 202 201 203 209 217 207 206 212 217 213 210 198 224 224 221 218 207 179 205 192 187 194 217 217 225 223 217 220 233 238 240 244 246 246 248 252 236 186 197 213 264 114 104 110 102 175 218 281 294 285 283 280 284 281 278 278 278 272 267 271 280 280 273 283
154 159 165 170 179 183 185 185 186 180 177 177 176 183 172 174 177 173 176 183 195 204 206 205 207 221 224 224 219 216 210 215 211 215 232 231 227 225 213 193 204 188 199 216 216 219 209 219 225 232 237 239 243 245 242 245 255 194 193 213 258 121 121 124 162 134 317 302 283 274 277 267 269 271 280 281 281 281 276 275 277 281 281 276 275
150 160 172 180 180 185 186 185 181 174 173 169 177 175 175 178 173 180 181 184 194 207 212 199 209 221 227 234 224 218 208 200 230 221 224 236 236 231 229 216 200 196 196 216 207 197 205 213 220 229 233 239 242 242 242 241 237 210 219 233 141 116 105 124 59 139 272 272 269 268 267 259 245 262 259 264 275 280 282 286 288 286 284 285 284
155 169 177 180 180 178 168 173 176 173 171 167 174 178 168 162 176 182 175 191 195 207 211 191 210 222 229 237 233 209 197 197 208 231 228 228 234 236 233 231 225 211 206 206 195 197 208 218 222 226 231 235 238 239 244 245 221 193 210 224 125 86 106 119 181 165 248 257 252 259 264 254 244 253 267 276 279 282 287 290 289 282 275 272 275
164 171 169 167 165 152 158 156 159 163 163 175 180 176 173 175 182 175 181 198 200 206 207 192 215 218 231 235 234 212 187 189 207 213 230 233 235 235 236 235 233 232 223 197 198 203 216 221 224 231 235 237 235 209 134 186 196 217 221 113 112 133 136 159 191 200 244 252 253 252 259 269 275 275 277 278 273 273 276 287 303 302 313 314 316
150 151 151 146 136 148 154 156 148 140 151 148 154 157 158 168 172 178 185 194 199 204 205 203 212 217 229 236 229 204 202 205 209 209 217 227 237 239 242 244 240 237 240 213 203 215 221 222 225 230 226 229 223 188 185 179 162 113 86 101 134 158 186 180 202 220 237 248 254 256 260 267 276 287 285 282 275 269 273 283 287 287 310 314 310
149 151 146 143 148 153 154 151 153 157 165 163 163 160 167 170 182 191 191 192 192 209 203 210 213 215 227 226 216 217 226 215 211 203 210 211 219 222 230 238 236 237 224 228 222 205 202 220 228 232 232 226 207 92 105 144 160 162 153 154 183 186 199 220 222 215 233 233 254 264 275 273 281 277 282 272 268 275 286 286 277 293 309 319 316
119 125 131 131 140 146 145 155 159 157 156 166 168 167 175 186 196 211 215 184 197 196 201 215 214 215 208 208 200 232 229 227 227 206 210 205 204 204 214 212 201 212 215 210 194 210 208 212 208 211 206 196 188 196 189 178 203 198 199 216 219 211 222 201 227 234 232 220 239 246 265 275 278 280 276 278 278 296 283 275 269 280 305 297 290
121 135 142 141 139 136 131 137 142 148 156 165 163 75 279 179 191 184 217 199 206 219 201 210 201 187 204 220 194 214 229 228 212 212 215 217 220 217 217 215 212 211 213 219 213 215 218 215 220 215 214 202 211 210 205 207 214 220 225 221 208 202 217 224 226 239 226 224 230 237 252 257 271 274 271 275 293 292 289 295 291 301 308 310 305
135 138 147 154 158 154 145 144 145 142 146 150 160 172 216 321 223 214 200 203 210 217 223 227 218 201 193 223 228 232 244 248 239 227 225 224 225 226 226 223 219 215 212 211 225 219 213 221 224 217 220 217 220 213 207 210 218 219 224 208 206 213 226 216 229 220 224 229 232 230 241 241 257 262 264 280 294 295 286 273 270 286 282 287 296
158 166 159 150 148 147 145 141 141 134 137 137 154 162 173 210 286 248 224 220 221 223 227 229 231 233 228 221 200 244 249 247 242 238 233 228 227 227 227 224 221 217 215 210 217 228 223 225 226 224 219 223 228 215 211 214 216 214 212 200 223 214 210 229 223 195 218 220 228 242 242 243 243 250 258 271 281 281 289 293 291 293 291 281 272
141 145 151 145 143 138 140 142 151 152 153 154 159 163 171 187 209 250 257 231 228 232 232 236 237 239 238 238 228 208 216 230 237 234 227 225 225 224 222 223 220 219 215 215 211 214 214 224 229 225 216 221 220 212 217 213 214 212 205 209 218 215 213 222 203 192 207 212 217 236 241 247 249 254 255 260 266 272 283 285 287 281 279 287 286
145 151 156 156 143 149 151 158 157 171 167 168 171 174 193 189 204 196 216 295 275 241 234 232 233 237 239 236 235 235 233 235 236 236 233 231 229 229 228 230 232 228 222 219 219 221 213 219 226 225 222 219 218 211 213 207 207 210 210 216 226 233 228 157 185 220 218 229 233 237 240 247 250 250 255 252 253 256 269 276 282 285 284 279 289
115 123 134 140 151 156 162 158 161 156 163 171 178 182 190 192 180 183 188 196 206 213 213 226 227 225 228 237 238 234 231 232 234 234 233 231 230 228 231 231 230 235 235 228 215 220 218 220 221 220 216 217 210 198 208 201 196 197 204 215 220 220 211 201 219 216 222 223 227 236 235 240 245 241 240 247 261 267 264 268 269 269 275 285 287
122 128 135 137 136 141 157 160 161 166 173 185 181 181 170 171 182 196 196 201 204 213 235 222 219 233 232 229 229 230 233 237 237 234 230 226 224 223 226 229 226 225 227 245 242 229 227 231 218 210 194 202 182 188 197 196 197 197 201 201 218 215 212 220 223 221 220 217 227 233 237 238 236 238 238 245 248 256 260 259 267 270 271 270 275
130 135 142 152 148 145 147 149 162 168 169 161 162 168 171 180 183 178 188 198 209 224 209 247 246 270 0 23 349 229 209 123 54 51 31 234 238 241 230 240 248 249 236 231 237 237 230 223 202 204 189 197 193 195 182 193 192 199 202 206 211 216 224 222 224 215 219 222 234 232 235 240 236 229 220 247 256 250 253 256 256 264 268 279 287
144 150 154 147 139 138 142 157 163 166 156 157 162 162 169 176 179 182 187 199 203 201 225 235 206 199 215 237 40 40 354 4 23 332 354 4 29 24 43 57 55 30 348 5 6 8 338 21 148 201 198 195 200 184 188 197 196 202 206 214 212 222 236 234 237 222 218 225 234 233 230 237 231 232 228 241 251 257 259 257 258 262 274 279 275
125 140 142 147 150 152 153 148 154 149 151 152 158 160 171 169 172 177 190 191 198 197 200 200 207 211 222 133 71 353 45 359 340 259 328 15 46 61 98 82 66 286 317 287 328 330 342 314 323 193 212 205 219 210 200 218 203 211 209 204 218 221 232 236 233 229 226 229 234 229 228 236 237 231 224 234 249 250 256 258 257 256 269 272 263
141 141 148 144 136 144 144 147 147 143 154 147 164 158 157 168 181 185 176 173 201 202 197 194 215 226 198 67 86 79 124 236 236 251 277 297 339 70 95 231 243 229 250 264 277 277 276 272 255 246 238 217 214 222 215 221 223 226 200 205 213 225 225 223 231 227 232 230 232 231 228 237 234 227 227 230 242 245 250 255 254 255 252 258 268
132 135 137 137 133 126 120 128 138 154 150 153 158 162 176 174 172 165 171 183 188 189 196 199 183 202 172 197 207 174 155 189 210 192 193 207 278 303 305 236 203 249 247 241 252 259 256 263 274 263 264 261 251 244 242 230 229 217 216 225 221 233 235 233 230 235 236 234 231 230 229 231 227 217 234 237 239 242 240 245 255 255 259 265 270
124 126 119 116 118 119 130 131 135 124 133 137 150 164 169 157 154 151 168 172 175 174 180 177 162 175 268 206 248 210 141 148 143 170 186 186 219 257 258 261 233 224 235 242 239 251 260 249 251 244 251 251 244 240 227 232 225 224 226 226 230 235 236 237 234 235 232 234 233 231 234 229 228 223 236 243 238 233 243 242 246 256 262 263 262
113 111 112 110 112 126 133 130 117 117 125 135 141 132 140 137 144 152 150 152 159 164 172 178 175 20 323 328 356 45 71 46 100 119 134 159 210 244 257 256 255 239 236 251 255 236 248 261 265 254 241 244 234 230 218 227 215 221 219 228 228 232 235 240 239 239 236 234 234 234 235 236 238 239 237 239 247 242 243 249 259 260 259 258 258
103 100 96 97 95 84 90 110 118 118 126 129 125 120 123 116 111 115 124 117 120 112 152 182 182 116 333 357 20 31 53 62 53 356 276 280 273 270 275 293 305 314 296 282 272 248 224 242 258 264 258 254 245 239 231 230 213 215 218 224 230 232 233 236 236 237 232 230 232 232 235 235 234 236 240 243 238 242 245 243 247 249 255 254 256
101 103 104 95 89 97 91 93 108 116 116 108 103 91 90 107 114 101 109 123 109 101 98 116 87 75 51 6 23 27 314 168 239 241 272 260 271 276 273 277 276 276 285 281 274 263 245 245 252 263 273 271 258 245 244 240 227 225 223 219 229 236 237 232 234 231 225 226 232 231 232 230 236 233 240 241 236 237 245 241 244 255 256 255 257
106 107 106 111 105 104 103 99 105 108 113 122 125 106 86 85 97 107 109 110 114 131 130 129 143 174 183 215 220 211 239 232 252 245 254 265 258 268 278 278 282 274 262 266 272 265 258 246 246 252 256 265 266 256 247 247 242 236 232 227 229 237 239 240 236 232 226 221 225 225 232 236 239 235 239 237 236 237 243 248 241 242 245 254 254
104 110 116 121 125 123 120 120 111 109 109 109 114 121 117 112 110 110 113 139 146 155 165 200 200 235 238 233 231 243 234 237 243 244 243 249 253 258 274 281 282 286 283 278 266 259 253 253 247 242 251 257 262 262 260 251 247 245 240 237 238 241 245 242 240 236 235 228 221 224 232 235 245 246 248 246 244 238 239 240 232 238 237 245 253
111 111 117 122 122 121 128 123 123 122 123 128 130 135 139 134 129 128 142 141 148 157 204 235 239 245 248 258 245 240 241 244 249 252 256 257 258 261 263 271 273 270 281 281 270 256 247 245 244 243 249 255 257 258 258 253 252 247 248 243 242 238 235 232 237 236 233 228 222 225 228 235 241 244 244 237 240 241 245 248 249 252 251 253 253
119 121 125 128 133 141 145 144 147 151 158 150 142 140 137 139 148 152 159 174 192 211 205 228 247 244 246 253 253 254 250 250 252 260 260 261 262 261 255 253 261 265 264 270 272 262 254 249 245 243 241 246 248 251 257 258 255 253 250 247 242 241 247 244 235 234 222 219 224 225 227 231 237 241 238 236 240 237 239 245 245 250 251 252 254
122 125 129 130 132 143 139 139 143 145 141 148 150 153 151 148 165 178 190 200 221 235 240 235 238 243 239 259 257 256 248 251 254 254 258 259 256 254 258 258 260 261 258 260 266 263 254 247 246 247 248 248 250 251 251 254 256 255 257 253 256 258 255 249 246 240 227 221 219 218 218 228 231 236 236 238 239 239 241 244 244 247 249 248 249
114 112 114 122 131 135 135 132 137 146 152 156 158 165 172 184 193 199 190 204 220 235 235 234 239 246 245 240 247 253 253 256 253 254 257 260 258 252 251 255 256 257 260 258 261 261 254 249 249 249 249 252 251 251 249 248 252 253 255 260 262 263 263 261 252 245 242 234 217 214 220 225 228 232 236 233 232 234 238 243 245 245 246 248 247